Cedar Falls, IA

8:32 AM CST on February 12, 2016 (GMT -0600)
Waterloo Municipal

Weather History for KALO - October, 2013

Change the Weather History Date:

Sunday, October 27, 2013

  Actual Average Record
Temperature  
Mean Temperature 40 °F 46 °F  
Max Temperature 59 °F 57 °F 85 °F (1927)
Min Temperature 21 °F 35 °F 15 °F (1997)
Degree Days  
Heating Degree Days 25 19  
Month to date heating degree days 410 386  
Since 1 July heating degree days 532 544  
Cooling Degree Days 0 0  
Month to date cooling degree days 8 8  
Year to date cooling degree days 837 798  
Moisture  
Dew Point 28 °F    
Average Humidity 63    
Maximum Humidity 92    
Minimum Humidity 33    
Precipitation  
Precipitation 0.00 in 0.07 in 0.75 in (1971)
Month to date precipitation 1.47 2.19  
Year to date precipitation 37.24 31.10  
Snow  
Snow 0.00 in 0.00 in 3.00 in (1925)
Month to date snowfall 1.0 0.2  
Since 1 July snowfall 1.0 0.2  
Since 1 September snowfall 1.0 0.2  
Snow Depth 0.00 in    
Sea Level Pressure  
Sea Level Pressure 30.00 in    
Wind  
Wind Speed 6 mph (South)    
Max Wind Speed 18 mph    
Max Gust Speed 23 mph    
Visibility 10 miles    
Events      
T = Trace of Precipitation, MM = Missing Value Source: NWS Daily Summary

Daily Weather History Graph

Daily Weather History Graph

Search for Another Location

Airport or City:

Trip Planner

Search our weather history database for the weather conditions in past years. The results will help you decide how hot, cold, wet, or windy it might be!

Date:

Astronomy

Oct. 27, 2013 Rise Set
Actual Time 7:37 AM CDT 6:08 PM CDT
Civil Twilight 7:08 AM CDT 6:37 PM CDT
Nautical Twilight 6:35 AM CDT 7:10 PM CDT
Astronomical Twilight 6:02 AM CDT 7:43 PM CDT
Moon 12:26 AM CDT (10/27) 2:26 PM CDT (10/27)
Length of Visible Light 11h 29m
Length of Day
10h 31m
Last Quarter, 43% of the Moon is Illuminated
Oct 27
Last Quarter
Nov 3
New
Nov 9
First Quarter
Nov 17
Full
Nov 25
Last Quarter

Hourly Weather History & Observations

Time (CDT) Temp. Windchill Dew Point Humidity Pressure Visibility Wind Dir Wind Speed Gust Speed Precip Events Conditions
12:54 AM 30.9 °F - 25.0 °F 79% 30.10 in 10.0 mi Calm Calm - N/A   Clear
1:54 AM 28.0 °F - 24.1 °F 85% 30.09 in 10.0 mi Calm Calm - N/A   Clear
2:54 AM 26.1 °F - 23.0 °F 88% 30.08 in 10.0 mi Calm Calm - N/A   Clear
3:54 AM 25.0 °F - 21.9 °F 88% 30.07 in 10.0 mi Calm Calm - N/A   Clear
4:54 AM 25.0 °F - 21.9 °F 88% 30.06 in 10.0 mi Calm Calm - N/A   Clear
5:54 AM 21.9 °F - 19.9 °F 92% 30.06 in 10.0 mi Calm Calm - N/A   Clear
6:54 AM 21.9 °F - 19.9 °F 92% 30.06 in 10.0 mi Calm Calm - N/A   Clear
7:54 AM 24.1 °F - 21.9 °F 91% 30.05 in 10.0 mi Calm Calm - N/A   Clear
8:54 AM 30.9 °F - 27.0 °F 85% 30.06 in 10.0 mi Calm Calm - N/A   Clear
9:54 AM 39.0 °F 33.4 °F 28.9 °F 67% 30.04 in 10.0 mi SW 8.1 mph - N/A   Clear
10:54 AM 45.0 °F 40.1 °F 30.0 °F 56% 30.01 in 10.0 mi SW 9.2 mph - N/A   Clear
11:54 AM 50.0 °F - 30.0 °F 46% 29.99 in 10.0 mi SSW 10.4 mph - N/A   Clear
12:54 PM 53.1 °F - 30.0 °F 41% 29.96 in 10.0 mi SSW 17.3 mph 23.0 mph N/A   Clear
1:54 PM 57.0 °F - 30.9 °F 37% 29.92 in 10.0 mi SSW 13.8 mph - N/A   Clear
2:54 PM 57.9 °F - 30.9 °F 36% 29.90 in 10.0 mi SSW 11.5 mph 20.7 mph N/A   Clear
3:54 PM 59.0 °F - 30.0 °F 33% 29.88 in 10.0 mi South 15.0 mph - N/A   Clear
4:54 PM 57.9 °F - 30.9 °F 36% 29.88 in 10.0 mi South 13.8 mph 20.7 mph N/A   Clear
5:54 PM 55.0 °F - 30.9 °F 40% 29.90 in 10.0 mi South 4.6 mph - N/A   Clear
6:54 PM 48.9 °F - 30.9 °F 50% 29.93 in 10.0 mi Calm Calm - N/A   Clear
7:54 PM 46.0 °F 43.9 °F 33.1 °F 61% 29.94 in 10.0 mi SSE 4.6 mph - N/A   Clear
8:54 PM 45.0 °F 43.5 °F 32.0 °F 60% 29.95 in 10.0 mi SE 3.5 mph - N/A   Clear
9:54 PM 43.0 °F 40.3 °F 32.0 °F 65% 29.97 in 10.0 mi SSE 4.6 mph - N/A   Clear
10:54 PM 43.0 °F 39.5 °F 30.9 °F 62% 29.99 in 10.0 mi South 5.8 mph - N/A   Clear
11:54 PM 39.9 °F 35.8 °F 30.9 °F 70% 29.99 in 10.0 mi South 5.8 mph - N/A   Clear